Hurricane Symbol View the latest observations near Atlantic Potential Tropical Cyclone One.

Station CBCM2 - Curtis Bay Ch. Entrance (8574837) Image indicating link to RSS feed of recent meteorological observations for station CBCM2


Conditions at CBCM2 as of
(11:18 pm EDT on 06/18/2024)
0318 GMT on 06/19/2024:
     

Click on the graph icon in the table below to see a time series plot of the last five days of that observation.

5-day plot - Wind Direction Wind Direction (WDIR): S ( 180 deg true )
5-day plot - Wind Speed Wind Speed (WSPD): 8.0 kts
5-day plot - Wind Gust Wind Gust (GST): 12.0 kts
5-day plot - Atmospheric Pressure Atmospheric Pressure (PRES):30.25 in
5-day plot - Air Temperature Air Temperature (ATMP): 78.1 °F
5-day plot - Water Temperature Water Temperature (WTMP): 77.7 °F
5-day plot - Dew Point Dew Point (DEWP): 67.1 °F
5-day plot - Heat Index Heat Index (HEAT): 80.1 °F
5-day plot - Wind Speed at 10 Meters Wind Speed at 10 meters (WSPD10M): 9.7 kts
5-day plot - Wind Speed at 20 Meters Wind Speed at 20 meters (WSPD20M): 11.7 kts
5-day plot -  Wind Speed, Wind Gust and Atmospheric Pressure Combined plot of Wind Speed, Gust, and Air Pressure
Previous observations
TIME
(EDT)
5-day plot - Wind Direction
WDIR
 
5-day plot - Wind Speed
WSPD
kts
5-day plot - Wind Gust
GST
kts
5-day plot - Wave Height
WVHT
ft
5-day plot - Dominant Wave Period
DPD
sec
5-day plot - Average Wave Period
APD
sec
5-day plot - Mean Wave Direction
MWD
 
5-day plot - Atmospheric Pressure
PRES
in
5-day plot - Pressure Tendency
PTDY
in
5-day plot - Air Temperature
ATMP
°F
5-day plot - Water Temperature
WTMP
°F
5-day plot - Dew Point
DEWP
°F
5-day plot - Salinity
SAL
psu
5-day plot - Visibility
VIS
nmi
5-day plot - Tide (above MLLW)
TIDE
ft
2024-06-18 11:12 pm S 8.9 12.0----30.25- 78.1 77.7 66.9---
2024-06-18 11:06 pm S 8.0 12.0----30.25- 78.1 77.7 67.3---
2024-06-18 11:00 pmSSE 9.9 13.0----30.25+0.05 78.3 77.7 67.5---
2024-06-18 10:54 pm S 9.9 13.0----30.24- 78.3 77.7 68.0---
2024-06-18 10:48 pm S 9.9 12.0----30.24- 78.3 77.9 67.6---
2024-06-18 10:42 pm S 9.9 15.0----30.24- 78.3 77.9 67.6---
2024-06-18 10:36 pm S 11.1 14.0----30.24- 78.4 77.9 67.3---
2024-06-18 10:30 pm S 12.0 15.0----30.24- 78.4 77.9 67.5---
2024-06-18 10:24 pm S 8.9 13.0----30.24- 78.4 77.9 67.8---
2024-06-18 10:18 pm S 8.9 11.1----30.24- 78.6 77.9 67.6---
2024-06-18 10:12 pm S 9.9 12.0----30.24- 78.6 77.9 66.7---
2024-06-18 10:06 pm S 9.9 14.0----30.24- 78.8 77.9 66.0---
2024-06-18 10:00 pm S 8.0 9.9----30.24+0.05 79.0 77.9 66.6---
2024-06-18 09:54 pm S 8.0 12.0----30.24- 79.0 77.9 66.0---
2024-06-18 09:42 pm S 8.9 11.1----30.23- 79.3 77.9 66.2---
2024-06-18 09:36 pmSSW 9.9 11.1----30.23- 79.5 77.9 65.8---
2024-06-18 09:30 pmSSW 8.0 11.1----30.23- 79.7 77.9 66.0---
2024-06-18 09:24 pm S 8.9 12.0----30.23- 79.9 77.9 66.2---
2024-06-18 09:12 pm S 9.9 13.0----30.22- 80.2 77.9 66.4---
2024-06-18 09:06 pm S 9.9 11.1----30.22- 80.2 77.9 66.7---
2024-06-18 09:00 pm S 11.1 14.0----30.22+0.04 80.4 77.9 68.0---
2024-06-18 08:54 pm S 11.1 13.0----30.21- 80.6 77.9 67.6---
2024-06-18 08:48 pm S 9.9 15.9----30.21- 81.0 77.9 68.0---
2024-06-18 08:42 pm S 9.9 15.9----30.20- 81.1 77.9 68.5---
2024-06-18 08:36 pm S 12.0 15.0----30.20- 81.3 78.1 68.7---
2024-06-18 08:30 pm S 12.0 15.0----30.20- 81.5 78.1 68.5---
2024-06-18 08:24 pm S 12.0 15.0----30.19- 81.5 78.1 68.7---
2024-06-18 08:18 pm S 11.1 13.0----30.20-- 78.1----
2024-06-18 08:12 pm S 8.9 11.1----30.19- 81.9 78.1 68.5---
2024-06-18 08:06 pmSSW 8.0 13.0----30.19- 82.0 78.1 68.7---
2024-06-18 08:00 pm S 13.0 15.9----30.19+0.00 82.2 78.3 68.7---
2024-06-18 07:54 pm S 11.1 14.0----30.19- 82.4 78.3 69.1---
2024-06-18 07:48 pm S 12.0 15.0----30.19- 82.6 78.3 68.7---
2024-06-18 07:42 pm S 12.0 13.0----30.19- 82.8 78.3 68.9---
2024-06-18 07:36 pm S 11.1 13.0----30.19- 82.9 78.3 69.1---
2024-06-18 07:30 pm S 8.9 13.0----30.19- 83.5 78.3 69.1---
2024-06-18 07:24 pm S 9.9 13.0----30.19- 83.5 78.1 68.9---
2024-06-18 07:00 pm S 8.0 11.1----30.19-0.01 84.0 78.3 69.6---
2024-06-18 06:54 pm S 11.1 14.0----30.19- 83.1 78.4 70.7---
2024-06-18 06:48 pm S 9.9 14.0----30.18-- 78.6----
2024-06-18 06:42 pmSSE 8.9 12.0----30.18- 83.8 78.6 70.5---
2024-06-18 06:36 pm S 11.1 12.0----30.18- 84.9 78.6 68.9---
2024-06-18 06:30 pm S 9.9 13.0----30.18- 85.1 78.6 69.1---
2024-06-18 06:24 pmSSW 8.9 12.0----30.18- 85.1 78.6 68.7---
2024-06-18 06:18 pm S 9.9 13.0----30.18-- 78.6----
2024-06-18 06:12 pm S 8.9 12.0----30.18- 84.7 78.6 69.4---
2024-06-18 06:06 pm S 9.9 13.0----30.18- 84.7 78.6 69.3---
2024-06-18 06:00 pm S 8.9 12.0----30.18-0.03 84.6 78.6 70.2---
2024-06-18 05:54 pm S 11.1 13.0----30.18- 84.6 78.8 69.4---
2024-06-18 05:48 pm S 11.1 14.0----30.18- 84.6 78.8 69.8---
2024-06-18 05:42 pm S 11.1 12.0----30.18- 84.7 78.8 69.3---
2024-06-18 05:36 pm S 9.9 14.0----30.18- 84.6 78.8 69.8---
2024-06-18 05:30 pm S 11.1 15.0----30.18- 84.6 78.8 70.0---
2024-06-18 05:24 pm S 9.9 14.0----30.19- 84.2 78.8 70.5---
2024-06-18 05:18 pm S 8.9 14.0----30.19- 84.2 79.0 70.5---
2024-06-18 05:12 pmSSE 14.0 17.1----30.19- 84.6 79.0 69.3---
2024-06-18 05:06 pmSSE 11.1 14.0----30.19- 83.7 79.0 70.7---
2024-06-18 05:00 pmSSE 12.0 12.0----30.19-0.03 84.0 79.2 70.3---
2024-06-18 04:54 pmSSE 9.9 11.1----30.19- 83.5 79.3 71.6---
2024-06-18 04:48 pmSSE 8.9 12.0----30.19-- 79.2----
2024-06-18 04:42 pmSSE 11.1 12.0----30.19- 83.1 79.2 71.6---
2024-06-18 04:36 pmSSE 11.1 13.0----30.19- 83.3 79.0 71.6---
2024-06-18 04:30 pmSSE 11.1 13.0----30.19- 82.6 79.2 72.1---
2024-06-18 04:24 pmSSE 11.1 13.0----30.20- 82.8 79.0 72.1---
2024-06-18 04:18 pmSSE 11.1 13.0----30.20- 82.9 79.0 71.4---
2024-06-18 04:12 pmSSE 9.9 12.0----30.20- 82.9 79.0 71.8---
2024-06-18 04:06 pmSSE 8.9 12.0----30.21- 82.9 79.0 72.3---
2024-06-18 04:00 pmSSE 8.9 12.0----30.21-0.01 83.1 79.0 72.0---
2024-06-18 03:54 pmSSE 9.9 12.0----30.21- 83.1 79.0 71.6---
2024-06-18 03:48 pmSSE 8.9 13.0----30.21- 82.4 79.0 72.1---
2024-06-18 03:42 pmSSE 9.9 11.1----30.21- 82.8 79.2 71.8---
2024-06-18 03:36 pmSSE 11.1 13.0----30.21- 82.8 79.2 72.0---
2024-06-18 03:30 pm SE 11.1 14.0----30.21- 82.4 79.0 72.1---
2024-06-18 03:24 pm SE 12.0 13.0----30.20- 82.4 79.0 71.8---
2024-06-18 03:18 pmSSE 12.0 13.0----30.21- 82.6 79.0 71.8---
2024-06-18 03:12 pmSSE 11.1 13.0----30.21- 82.4 79.2 72.0---
2024-06-18 03:06 pm SE 11.1 13.0----30.21- 82.4 79.3 71.8---
2024-06-18 03:00 pm SE 11.1 13.0----30.21-0.01 82.4 79.3 72.0---
2024-06-18 02:54 pm SE 9.9 11.1----30.22- 82.4 79.3 71.8---
2024-06-18 02:48 pmESE 9.9 13.0----30.22- 81.7 79.2 72.5---
2024-06-18 02:42 pm SE 11.1 13.0----30.21- 81.1 79.2 72.5---
2024-06-18 02:36 pm SE 9.9 13.0----30.22- 81.3 79.0 72.9---
2024-06-18 02:30 pmESE 11.1 13.0----30.22- 81.1 79.0 72.3---
2024-06-18 02:24 pmESE 12.0 14.0----30.22- 80.6 78.8 72.1---
2024-06-18 02:18 pm SE 13.0 14.0----30.22- 80.2 78.8 72.5---
2024-06-18 02:12 pm SE 12.0 14.0----30.22- 80.8 78.8 71.8---
2024-06-18 02:06 pm SE 12.0 14.0----30.22- 80.1 78.8 72.1---
2024-06-18 02:00 pm SE 12.0 14.0----30.22-0.01 79.9 78.8 72.1---
2024-06-18 01:54 pm SE 13.0 15.0----30.22- 79.7 78.6 72.3---
2024-06-18 01:48 pm SE 12.0 15.9----30.22- 79.7 78.6 71.8---
2024-06-18 01:42 pmESE 13.0 15.9----30.22- 79.7 78.8 71.2---
2024-06-18 01:36 pm SE 14.0 17.1----30.22- 79.5 78.8 70.9---
2024-06-18 01:30 pm SE 14.0 17.1----30.22- 79.5 79.0 70.7---
2024-06-18 01:24 pmESE 14.0 17.1----30.22- 79.5 78.8 70.7---
2024-06-18 01:18 pm SE 14.0 17.1----30.22-- 78.8----
2024-06-18 01:12 pm SE 14.0 15.9----30.22- 79.0 78.6 70.9---
2024-06-18 01:06 pmESE 14.0 15.9----30.22- 79.2 78.6 70.5---
2024-06-18 01:00 pm SE 12.0 14.0----30.22-0.01 79.0 78.6 70.9---
2024-06-18 12:54 pmESE 11.1 13.0----30.22- 78.8 78.8 70.9---
2024-06-18 12:48 pmESE 11.1 14.0----30.22- 78.8 78.8 70.7---
2024-06-18 12:42 pmESE 12.0 14.0----30.22- 78.8 78.8 70.7---
2024-06-18 12:36 pmESE 12.0 13.0----30.23- 78.3 78.6 70.9---
2024-06-18 12:30 pm SE 11.1 14.0----30.23- 78.1 78.8 70.3---
2024-06-18 12:24 pm SE 12.0 15.0----30.23- 77.9 78.6 70.9---
2024-06-18 12:18 pm SE 13.0 15.0----30.22- 77.7 78.6 70.7---
2024-06-18 12:12 pm SE 13.0 14.0----30.22- 77.5 78.6 70.9---
2024-06-18 12:06 pm SE 12.0 14.0----30.23- 77.4 78.8 70.9---
2024-06-18 12:00 pm SE 12.0 14.0----30.22+0.00 77.0 78.8 70.9---
2024-06-18 11:54 am SE 9.9 12.0----30.22- 77.4 78.6 70.9---
2024-06-18 11:48 am SE 9.9 13.0----30.22- 77.5 78.8 70.5---
2024-06-18 11:42 amESE 11.1 12.0----30.22- 77.7 78.8 70.5---
2024-06-18 11:36 am SE 9.9 12.0----30.22- 77.7 78.8 70.5---
2024-06-18 11:30 amESE 9.9 11.1----30.22- 77.5 79.0 70.9---
2024-06-18 11:24 am SE 8.9 11.1----30.22- 77.7 79.3 70.7---
2024-06-18 11:18 am SE 8.0 9.9----30.22- 77.9 79.7 71.1---
2024-06-18 11:12 amESE 5.1 7.0----30.22- 79.2 79.5 69.1---
2024-06-18 11:06 am E 5.1 5.1----30.22- 79.0 79.2 69.1---
2024-06-18 11:00 am E 5.1 6.0----30.23+0.01 78.6 79.2 68.5---
2024-06-18 10:54 am E 5.1 6.0----30.23- 78.6 78.8 68.9---
2024-06-18 10:48 am E 5.1 6.0----30.22- 78.4 78.8 68.4---
2024-06-18 10:42 am E 5.1 6.0----30.23- 78.6 78.6 68.5---
2024-06-18 10:36 am E 4.1 5.1----30.23- 78.4 78.1 68.0---
2024-06-18 10:30 am E 4.1 5.1----30.22- 78.3 78.4 67.8---
2024-06-18 10:24 am E 4.1 5.1----30.23- 78.3 78.3 68.0---
2024-06-18 10:18 am E 4.1 5.1----30.22- 78.3 77.9 68.0---
2024-06-18 10:12 am E 2.9 5.1----30.23- 78.4 78.1 67.5---
2024-06-18 10:06 amSSE 2.9 5.1----30.23- 78.3 77.9 67.6---
2024-06-18 10:00 amWSW 1.9 4.1----30.23+0.02 78.1 77.9 67.5---
2024-06-18 09:54 amSSW 2.9 7.0----30.23- 77.7 77.7 66.7---
2024-06-18 09:48 amSSW 4.1 7.0----30.23- 77.5 77.5 67.5---
2024-06-18 09:42 am W 2.9 6.0----30.23- 77.4 77.4 66.4---
2024-06-18 09:36 amWSW 5.1 6.0----30.23- 77.0 77.4 66.6---
2024-06-18 09:30 am SW 5.1 8.0----30.23- 76.8 77.2 66.9---
2024-06-18 09:24 amSSW 6.0 7.0----30.23- 76.5 77.2 66.6---
2024-06-18 09:18 amSSW 5.1 8.0----30.22- 76.3 77.2 66.2---
2024-06-18 09:12 am SW 5.1 8.0----30.23- 76.3 77.2 66.0---
2024-06-18 09:06 am SW 7.0 8.9----30.22- 75.9 77.0 66.4---
2024-06-18 09:00 amWSW 7.0 9.9----30.23+0.03 75.9 77.0 66.0---
2024-06-18 08:54 am SW 7.0 9.9----30.22- 75.9 77.0 66.6---
2024-06-18 08:48 amWSW 5.1 8.9----30.22- 75.9 77.0 66.4---
2024-06-18 08:42 am SW 5.1 8.0----30.22- 75.7 77.0 66.2---
2024-06-18 08:36 am SW 5.1 8.9----30.22- 75.7 77.0 66.0---
2024-06-18 08:30 amWSW 7.0 12.0----30.22- 75.4 77.0 65.8---
2024-06-18 08:24 amSSW 6.0 11.1----30.22- 75.4 77.0 66.2---
2024-06-18 08:18 am S 8.0 9.9----30.22- 75.2 77.0 65.8---
2024-06-18 08:12 amSSW 6.0 11.1----30.22- 75.0 77.0 65.5---
2024-06-18 08:06 amSSW 8.0 9.9----30.22- 74.8 77.0 65.5---
2024-06-18 08:00 amSSW 8.0 9.9----30.22+0.03 74.7 77.0 65.5---
2024-06-18 07:54 am SW 7.0 9.9----30.22- 74.7 77.0 65.8---
2024-06-18 07:48 amSSW 7.0 9.9----30.22- 74.7 77.0 65.7---
2024-06-18 07:42 am SW 7.0 11.1----30.22- 74.5 77.0 65.5---
2024-06-18 07:36 am S 5.1 8.0----30.22- 74.7 77.0 66.0---
2024-06-18 07:30 am SW 5.1 7.0----30.22- 74.5 76.8 66.2---
2024-06-18 07:24 amSSW 5.1 7.0----30.22- 74.3 76.8 65.5---
2024-06-18 07:18 am SW 4.1 8.0----30.22-- 77.0----
2024-06-18 07:12 amSSW 6.0 8.0----30.21- 74.1 77.0 65.7---
2024-06-18 07:06 am S 6.0 8.9----30.21- 74.1 76.8 65.8---
2024-06-18 07:00 amSSW 4.1 7.0----30.21+0.04 74.1 76.8 65.7---
2024-06-18 06:54 am S 6.0 8.0----30.21- 73.9 76.8 65.3---
2024-06-18 06:48 amSSW 4.1 6.0----30.21- 74.1 76.8 65.7---
2024-06-18 06:42 am S 5.1 7.0----30.20- 74.1 77.0 65.5---
2024-06-18 06:36 am S 5.1 8.0----30.20- 74.1 77.0 65.7---
2024-06-18 06:30 amSSW 8.0 11.1----30.20- 74.1 77.0 65.7---
2024-06-18 06:24 am S 7.0 8.0----30.20- 74.3 76.8 66.2---
2024-06-18 06:18 am S 7.0 9.9----30.20- 74.1 77.0 65.8---
2024-06-18 06:12 am S 5.1 7.0----30.20- 74.1 77.0 65.7---
2024-06-18 06:06 am S 4.1 6.0----30.20- 74.1 77.0 65.5---
2024-06-18 06:00 amSSW 5.1 7.0----30.20+0.04 74.1 77.0 65.7---
2024-06-18 05:54 amSSW 4.1 6.0----30.20- 74.3 77.0 65.7---
2024-06-18 05:48 amSSW 5.1 7.0----30.19- 74.3 77.2 65.7---
2024-06-18 05:42 amSSW 5.1 8.0----30.19- 74.5 77.2 65.8---
2024-06-18 05:36 amSSW 5.1 7.0----30.19- 74.5 77.2 65.7---
2024-06-18 05:30 am SW 5.1 7.0----30.19- 74.7 77.2 66.0---
2024-06-18 05:24 amSSW 6.0 8.0----30.19- 74.7 77.2 65.8---
2024-06-18 05:18 amSSW 8.9 12.0----30.19- 74.8 77.2 65.8---
2024-06-18 05:12 amSSW 8.0 11.1----30.18- 74.8 77.2 65.8---
2024-06-18 05:06 am S 6.0 8.0----30.18- 74.8 77.2 66.0---
2024-06-18 05:00 amSSW 6.0 8.0----30.18+0.01 75.0 77.0 66.0---
2024-06-18 04:54 amSSW 5.1 7.0----30.18- 75.0 77.0 66.0---
2024-06-18 04:48 am S 4.1 7.0----30.18-- 77.0----
2024-06-18 04:42 amSSW 5.1 6.0----30.18- 75.0 77.0 66.2---
2024-06-18 04:36 am S 4.1 6.0----30.18- 74.8 77.0 65.8---
2024-06-18 04:30 am S 4.1 6.0----30.17- 75.0 77.0 66.4---
2024-06-18 04:24 amSSW 5.1 8.0----30.17- 74.8 76.8 65.8---
2024-06-18 04:18 amSSW 7.0 8.0----30.17-- 76.8----
2024-06-18 04:12 amSSW 8.0 11.1----30.17- 75.2 76.8 66.4---
2024-06-18 04:06 am S 8.0 9.9----30.17- 75.2 77.0 66.4---
2024-06-18 04:00 am S 8.9 11.1----30.17+0.01 75.4 77.2 66.2---
2024-06-18 03:54 am S 8.0 11.1----30.17- 75.4 77.2 66.6---
2024-06-18 03:48 amSSW 8.9 13.0----30.16- 75.4 77.2 66.4---
2024-06-18 03:42 am S 8.9 13.0----30.16- 75.4 77.4 66.6---
2024-06-18 03:36 am S 6.0 9.9----30.17- 75.4 77.4 66.2---
2024-06-18 03:30 am S 7.0 8.9----30.17- 75.4 77.4 66.6---
2024-06-18 03:24 am S 5.1 6.0----30.17- 75.2 77.4 66.4---
2024-06-18 03:18 am S 4.1 5.1----30.17- 75.2 77.4 66.2---
2024-06-18 03:12 amSSW 5.1 8.0----30.17- 75.0 77.4 66.2---
2024-06-18 03:06 amSSW 7.0 9.9----30.17- 75.2 77.2 66.6---
2024-06-18 03:00 amSSW 7.0 9.9----30.16+0.02 75.0 77.2 65.8---
2024-06-18 02:54 amSSW 6.0 8.9----30.16- 75.2 77.2 66.2---
2024-06-18 02:48 am S 7.0 9.9----30.16- 75.2 77.2 66.0---
2024-06-18 02:42 amSSW 7.0 11.1----30.17- 75.4 77.2 66.4---
2024-06-18 02:36 amSSW 7.0 8.9----30.17- 75.4 77.2 66.0---
2024-06-18 02:30 am S 6.0 11.1----30.17- 75.6 77.2 66.7---
2024-06-18 02:24 am S 5.1 7.0----30.16- 75.6 77.0 66.6---
2024-06-18 02:18 am S 5.1 8.9----30.17- 75.7 77.0 66.9---
2024-06-18 02:12 am S 6.0 8.9----30.17- 75.6 77.2 66.7---
2024-06-18 02:06 amSSW 5.1 7.0----30.16- 75.7 77.2 66.7---
2024-06-18 02:00 amSSW 4.1 5.1----30.17+0.03 75.7 77.2 66.7---
2024-06-18 01:54 am S 4.1 5.1----30.16- 75.7 77.2 66.9---
2024-06-18 01:48 amSSW 4.1 5.1----30.16- 75.7 77.2 66.9---
2024-06-18 01:42 amSSW 2.9 5.1----30.16- 75.7 77.4 67.5---
2024-06-18 01:36 am SW 4.1 5.1----30.16- 75.7 77.4 67.3---
2024-06-18 01:30 am SW 4.1 5.1----30.16- 75.9 77.2 67.3---
2024-06-18 01:24 am SW 2.9 4.1----30.16- 75.9 77.2 67.5---
2024-06-18 01:18 amSSW 1.9 2.9----30.16- 76.1 77.2 67.6---
2024-06-18 01:12 amSSW 1.9 1.9----30.16- 76.1 77.2 68.0---
2024-06-18 01:06 amWSW 1.9 5.1----30.16- 76.1 77.2 67.8---
2024-06-18 01:00 am SW 2.9 5.1----30.16+0.02 76.1 77.2 67.8---
2024-06-18 12:54 am SW 1.9 4.1----30.16- 76.1 77.2 67.8---
2024-06-18 12:48 am S 4.1 6.0----30.16- 76.1 77.2 67.8---
2024-06-18 12:42 amSSW 4.1 5.1----30.16- 76.1 77.2 67.8---
2024-06-18 12:36 amSSW 4.1 5.1----30.16- 76.3 77.2 68.0---
2024-06-18 12:30 amSSW 5.1 6.0----30.16- 76.3 77.2 68.0---
2024-06-18 12:24 amSSW 5.1 8.0----30.15- 76.3 77.0 67.8---
2024-06-18 12:18 amSSW 5.1 8.9----30.15-- 77.0----
2024-06-18 12:12 am SW 4.1 7.0----30.14- 76.5 77.0 68.2---
2024-06-18 12:06 am SW 6.0 8.9----30.15- 76.5 77.0 67.5---
2024-06-18 12:00 amSSW 8.0 11.1----30.14+0.03 76.5 76.8 67.5---
2024-06-17 11:54 pm S 7.0 8.9----30.15- 76.6 76.8 67.8---
2024-06-17 11:48 pmSSW 4.1 13.0----30.15- 76.8 76.8 68.0---
2024-06-17 11:42 pm S 11.1 15.9----30.14- 76.8 76.8 67.8---
2024-06-17 11:36 pm S 11.1 15.9----30.14- 76.8 77.0 67.8---
2024-06-17 11:30 pm S 12.0 15.9----30.14- 76.8 77.0 68.2---
2024-06-17 11:24 pm S 12.0 17.1----30.14- 77.0 77.0 68.4---
2024-06-17 11:18 pm S 11.1 15.0----30.14- 77.0 77.0 68.2---
2024-06-17 11:12 pm S 8.9 13.0----30.14- 77.0 77.0 68.4---
2024-06-17 11:06 pm S 13.0 15.9----30.14- 77.0 77.2 68.4---
2024-06-17 11:00 pm S 12.0 17.1----30.14+0.03 77.2 77.0 68.2---
2024-06-17 10:54 pm S 13.0 17.1----30.14- 77.2 77.0 68.0---